Location: Ulu Sungai Sera
(3.0000°N, 113.0833°E)
Time: 05:41:59
(UTC+00:00)

Daily predictions for brighter satellites

Satellite Brightness Start Highest point End
(mag) Time Altitude Azimuth Time Altitude Azimuth Time Altitude Azimuth
USA 59 Rocket 1.6 10:49:02 10° N 10:55:17 58° ENE 11:03:58 10° SE
SKYMED 3 4.5 10:52:09 10° NNE 10:56:05 55° E 11:00:01 10° S
CZ-4B R/B 3.9 10:52:11 10° S 10:56:12 88° WSW 11:00:02 10° NNW
Cosmos 1340 4.2 10:55:22 10° NE 10:57:18 15° E 10:59:14 10° ESE
Cosmos 2082 Rocket 2.2 10:55:43 10° SSW 11:01:26 83° ESE 11:07:09 10° NNE
Geosat 4.3 10:56:32 10° NNE 11:01:30 75° WNW 11:06:30 10° SSW
Cosmos 1151 Rocket 3.0 10:57:32 10° S 11:01:50 68° E 11:06:05 10° N
ARIANE 5 R/B 1.9 11:00:27 10° WSW 11:03:30 32° S 11:05:23 10° ESE
ADEOS Rocket 3.4 10:56:50 10° SSE 11:03:31 68° ENE 11:10:51 10° N
ATLAS CENTAUR R/B 2.8 11:05:23 10° SE 11:06:47 12° ESE 11:08:11 10° E
Cosmos 2279 Rocket 4.3 11:03:56 10° NNE 11:09:53 48° E 11:15:52 10° SSE
Meteor 1-31 Rocket 3.8 11:06:56 10° S 11:10:27 45° WSW 11:13:57 10° NNW
Cosmos 1626 2.4 11:10:10 10° SSE 11:13:05 33° E 11:15:59 10° NNE
Cosmos 1656 4.4 11:08:07 10° N 11:13:11 35° ENE 11:18:16 10° SE
FUSE 3.9 11:15:57 10° WSW 11:21:17 86° SSE 11:26:37 10° ENE
Meteor 1-11 Rocket 3.8 11:17:43 10° N 11:23:37 67° E 11:29:30 10° SSE
USA 215 3.4 11:17:58 10° SSE 11:24:29 75° SW 11:31:01 10° NW
YAOGAN 1 2.7 11:20:43 10° SSE 11:24:53 51° ENE 11:29:02 10° N
BlueWalker 3 2.8 11:22:21 10° S 11:25:32 25° SE 11:28:41 10° ENE
Ariane H10-3 4.1 11:17:49 10° W 11:26:29 38° SSW 11:28:33 18° SE
Meteor 2-4 Rocket 3.8 11:21:47 10° S 11:27:43 89° ESE 11:33:37 10° N
SJ-6B 4.4 11:28:00 15° E 11:28:12 15° ENE 11:30:18 10° NE
Cosmos 1726 4.0 11:28:00 10° NW 11:30:33 24° W 11:33:05 10° SSW
Cosmos 1500 Rocket 3.5 11:29:57 10° N 11:34:16 67° E 11:38:39 10° S
Cosmos 1536 3.3 11:31:38 10° NNW 11:35:31 59° W 11:39:24 10° S
Helios 1B rocket 4.5 11:33:06 10° SSW 11:36:21 25° WSW 11:39:33 10° NW
H-2A R/B 2.2 11:30:15 10° WNW 11:36:48 52° SW 11:39:10 21° SSE
Lacrosse 5 rocket 3.4 11:40:41 10° NNE 11:42:27 13° ENE 11:42:31 13° ENE
Cosmos 1697 Rocket 3.9 11:38:37 10° NNE 11:42:43 21° ENE 11:43:35 20° E
Cosmos 1428 Rocket 4.4 11:38:47 10° S 11:44:54 87° W 11:51:00 10° N
CZ-4 R/B 2.6 11:49:04 24° ENE 11:49:04 24° ENE 11:51:52 10° NNE
Delta 142 3.9 11:42:56 10° SW 11:48:48 62° SSE 11:51:26 26° ENE
SL-12 R/B (Aux Motor) 4.3 11:48:39 10° SW 11:50:32 42° W 11:50:32 42° W
Cosmos 1805 Rocket 3.5 11:46:26 10° N 11:50:50 89° W 11:54:26 15° S
Meteor 2-10 4.1 11:48:17 10° N 11:53:16 75° W 11:58:19 10° S
Sich 1 3.1 11:50:30 10° N 11:54:45 75° W 11:58:08 16° S
